Location: Sagn�
(15.2046°N, 12.7898°W)
Time: 13:24:23
(UTC+00:00)

Cosmos 1606 - Pass Details

Date: 08 May 2021
Orbit: 503 x 525 km, 82.5° (Epoch: 15 June)

Event Time Altitude Azimuth Distance (km) Brightness Sun altitude
Exits shadow 21:01:11 33° 240° (WSW) 864 4.0 -25.4°
Maximum altitude 21:02:06 39° 276° (W) 765 3.9 -25.6°
Drops below altitude 10° 21:05:37 10° 346° (NNW) 1,710 5.8 -26.3°
Sets 21:07:50 0° 354° (N) 2,597 6.7 -26.8°
